Location: Leipzig
(51.3392°N, 12.3528°E)
Time: 10:30:54
(UTC+02:00)

ISS - Pass Details

Date: 08 January 2018
Orbit: 402 x 409 km, 51.6° (Epoch: 21 August)

Event Time Altitude Azimuth Distance (km) Brightness Sun altitude
Exits shadow 06:45:32 23° 274° (W) 963 -2.5 -13.0°
Maximum altitude 06:47:29 63° 199° (SSW) 479 -3.5 -12.7°
Drops below altitude 10° 06:50:52 10° 118° (ESE) 1,515 0.6 -12.2°
Sets 06:52:59 0° 115° (ESE) 2,381 2.2 -11.9°
